Theta_e
338 338 339 339 338 338 337 337 339 339 339 340 340 338 336 333 335 333 335 339 340 339 342 343 343 344 339 339 342 343 338 336 335
338 338 338 338 338 338 338 339 341 341 340 341 338 337 334 334 335 337 338 338 338 338 342 341 341 343 342 342 342 344 343 342 342
338 338 339 339 339 340 340 341 342 341 339 336 335 333 332 334 336 335 335 339 335 340 340 338 336 337 338 339 339 339 339 340 341
338 338 338 339 340 341 341 342 340 336 332 330 331 331 328 331 330 329 332 339 339 340 338 336 334 334 334 333 334 333 333 334 335
342 340 339 339 340 341 341 341 337 330 329 333 331 328 324 326 326 329 333 339 340 338 336 334 331 330 329 329 328 328 329 329 330
340 338 339 340 341 341 342 340 331 328 325 327 324 321 322 322 326 335 339 337 336 335 333 331 329 328 327 327 326 326 326 326 326
340 337 338 340 341 341 340 335 326 315 313 315 318 321 322 324 330 334 337 334 334 332 330 328 327 326 325 324 323 323 323 323 322
340 341 340 339 335 335 331 321 315 312 309 311 317 319 322 327 332 334 334 331 329 327 327 325 323 322 321 320 320 320 320 320 320
339 339 339 338 337 330 323 315 309 307 306 309 314 317 322 327 329 330 330 329 327 325 323 321 320 319 319 319 319 319 319 318 319
338 338 337 336 334 329 318 310 306 305 304 306 312 316 320 323 325 327 326 327 324 322 320 318 317 317 317 317 317 317 316 317 317
336 335 335 334 332 326 316 308 305 304 304 303 309 314 318 320 320 322 322 324 322 318 316 315 315 315 316 315 315 314 314 315 315
335 334 333 332 330 322 310 305 303 303 302 302 306 312 315 316 316 315 316 316 317 316 314 313 312 313 312 313 312 311 311 311 312
332 332 332 331 327 315 308 304 303 303 302 301 302 308 312 313 313 310 310 310 309 311 311 309 308 308 309 309 309 308 308 308 309
331 330 331 329 323 312 306 303 304 302 300 300 300 301 308 310 308 306 306 306 305 306 308 306 305 304 304 305 307 307 307 306 307
330 329 329 326 319 312 305 304 300 300 300 297 299 301 301 306 306 305 302 304 302 304 302 300 300 303 303 303 304 306 306 305 306
328 329 326 322 318 313 307 303 299 297 298 299 299 300 299 299 303 303 301 301 299 299 298 298 298 298 298 299 302 304 306 306 305
327 326 323 319 317 312 305 302 298 296 299 299 299 297 297 297 297 299 299 299 298 297 296 296 296 297 297 297 298 300 302 304 305
328 326 324 318 317 310 306 303 302 297 296 298 300 294 296 296 295 295 297 297 296 296 295 294 294 294 295 297 299 300 301 303 305
327 325 324 320 316 313 308 304 303 300 295 294 293 294 296 295 292 293 293 294 294 294 294 293 293 293 294 294 295 297 298 301 303
327 325 322 320 316 315 310 306 304 302 299 298 292 291 292 292 294 292 291 291 292 293 293 293 292 291 292 294 294 295 297 299 302
Wind_Speed
10 10 9 10 9 9 9 10 11 10 10 9 8 8 6 4 5 4 3 3 8 9 10 12 12 13 6 3 9 8 4 1 1
11 11 10 9 9 9 9 10 10 10 9 8 7 8 7 6 6 5 4 4 8 8 11 13 14 17 17 16 16 20 14 8 10
10 10 9 8 8 9 9 9 10 9 8 7 7 8 7 6 6 5 4 5 6 9 12 12 11 13 14 17 17 17 18 18 17
10 9 8 7 6 9 8 9 9 8 8 7 7 8 7 6 4 4 2 2 8 11 12 13 13 13 13 16 15 15 15 16 16
10 8 7 6 5 8 6 10 10 9 9 10 10 9 7 5 4 2 1 7 11 13 12 12 12 12 11 12 11 12 13 14 16
9 8 7 6 5 6 7 9 11 11 10 9 8 5 3 4 3 3 8 11 11 11 12 11 11 12 12 13 12 13 13 13 13
5 7 8 7 4 8 9 9 10 6 4 3 4 3 3 3 3 3 9 11 12 10 12 11 11 11 11 10 10 11 11 12 12
5 5 5 5 5 4 6 5 3 5 4 3 3 3 3 2 2 5 9 10 9 9 11 9 9 10 9 9 10 10 11 11 11
6 5 6 5 4 6 4 3 4 5 5 5 5 4 3 3 3 6 9 11 9 9 10 8 8 8 8 9 9 9 10 10 10
6 6 6 5 5 5 5 5 5 5 5 4 4 5 5 5 3 4 9 9 9 9 9 8 7 7 7 8 8 8 8 8 9
7 7 7 6 5 5 5 5 5 4 4 4 4 5 5 5 5 4 6 8 8 8 7 6 7 6 7 7 7 7 7 7 8
10 8 7 7 6 7 5 5 4 4 4 5 4 4 5 5 6 4 4 6 7 7 7 6 6 6 5 6 5 4 5 5 5
10 8 8 8 7 6 6 6 5 4 4 4 4 4 4 5 5 4 4 4 4 5 6 6 6 5 4 4 5 4 3 3 3
11 9 9 10 7 7 7 5 5 5 4 4 4 3 4 5 4 5 5 5 4 3 8 7 5 4 4 4 5 5 5 4 4
12 10 10 10 8 8 8 8 4 3 5 5 3 2 3 4 4 6 4 4 5 4 4 3 3 4 3 3 5 5 6 5 6
14 10 12 11 11 12 12 7 6 3 5 5 3 2 2 4 4 4 5 6 5 5 4 3 2 1 3 3 5 7 8 8 7
14 13 12 13 10 12 13 11 5 3 9 4 2 4 3 4 5 4 5 7 5 5 5 5 4 2 1 2 4 5 7 8 8
17 16 13 13 11 11 12 13 12 7 7 6 4 4 5 3 3 6 5 7 6 5 5 4 3 3 3 2 3 5 6 7 8
16 15 15 14 11 12 12 10 11 7 7 3 4 0 3 4 3 3 4 5 7 7 5 4 4 4 3 4 3 4 6 9 11
15 16 17 16 12 13 13 12 12 8 7 6 5 2 1 2 3 3 4 4 5 5 4 4 4 4 3 3 2 4 7 10 13
Wind_Direction
128 126 121 113 113 107 105 103 103 102 108 103 93 84 81 92 97 90 48 5 58 52 60 62 66 57 108 92 41 43 175 165 283
133 131 130 126 120 112 109 108 105 99 97 92 87 79 88 113 109 100 69 46 57 72 76 69 62 62 60 58 55 55 60 54 51
139 137 134 130 124 122 118 112 105 98 98 99 98 88 92 110 102 93 74 55 72 94 85 74 65 60 60 58 51 49 50 49 51
147 144 137 130 132 120 124 113 99 99 99 94 101 104 88 103 101 104 93 42 97 98 90 81 72 70 63 57 52 49 45 46 43
152 146 147 139 135 129 130 114 107 93 91 94 97 95 86 89 89 83 53 106 95 90 83 77 76 70 66 64 59 57 55 51 48
169 149 158 146 153 161 128 112 104 91 81 91 95 96 90 98 88 95 108 101 91 89 81 76 75 78 70 64 65 62 60 56 53
179 162 163 161 160 124 121 110 105 100 100 95 89 81 92 83 91 97 112 105 94 91 88 80 77 76 75 69 66 63 60 57 54
192 175 169 169 132 122 115 121 108 119 121 111 110 103 94 87 105 127 114 108 101 91 86 90 86 81 76 70 63 59 54 51 49
185 180 174 173 167 153 147 139 128 121 119 122 123 117 110 100 91 111 98 109 109 106 105 99 90 85 78 70 64 60 48 45 44
178 181 180 179 171 170 157 155 149 139 126 116 126 130 125 115 105 114 98 110 119 118 113 107 99 90 81 74 69 61 51 49 52
188 184 185 185 185 172 167 166 159 140 138 124 133 139 132 126 118 114 114 102 116 121 117 109 99 99 86 81 78 56 46 47 45
191 192 188 190 185 167 155 149 150 144 136 137 145 152 151 146 137 123 119 119 107 123 130 118 108 96 79 72 74 63 50 45 40
201 198 195 188 178 173 171 163 160 157 163 156 150 163 166 164 155 148 143 131 123 107 123 115 100 93 89 67 44 30 29 16 20
205 204 202 184 179 180 173 172 172 176 164 150 156 159 177 180 170 164 158 147 138 132 118 105 89 87 73 37 23 21 7 347 329
200 205 203 187 183 183 182 176 167 162 160 145 141 158 177 192 195 179 172 166 161 157 145 139 97 56 40 13 354 344 340 329 312
198 199 200 190 190 188 188 164 171 153 159 132 140 144 183 200 202 196 183 182 184 179 170 161 151 118 57 17 330 322 314 308 303
195 194 195 196 190 189 185 174 153 141 185 152 131 189 183 207 205 200 200 196 187 184 177 170 152 137 64 7 0 337 324 313 306
195 194 193 190 189 192 191 185 178 166 197 199 158 151 220 156 181 210 207 197 196 187 173 167 160 144 119 87 56 21 354 329 315
202 196 194 189 193 196 199 193 189 159 169 201 230 5 133 175 188 214 217 212 205 194 183 175 163 151 130 86 33 12 344 324 315
204 197 194 194 194 202 194 187 199 193 166 175 153 183 157 142 150 170 189 221 215 205 194 180 167 152 137 115 33 357 336 329 317